EW8748 Weather Reports


Display with metric or nautical units.
time (UTC)temp
F
wind
direction
speed
MPH
gust
MPH
rain 1hr
in
rain 24hr
in
rain mn
in
humidity
%
barometer
mb
20260902200018 78 57 1.0 3.0 0.00 0.00 0.00 53 1017.4
20260902195026 78 73 2.0 3.0 0.00 0.00 0.00 52 1017.5
20260902194026 78 73 1.0 3.0 0.00 0.00 0.00 52 1017.4
20260902193519 78 73 2.0 3.0 0.00 0.00 0.00 53 1017.4
20260902191518 78 59 2.0 3.0 0.00 0.00 0.00 60 1017.4
20260902191027 78 70 2.0 3.0 0.00 0.00 0.00 61 1017.3
20260902190518 78 62 1.0 3.0 0.00 0.00 0.00 62 1017.2
20260902190019 78 81 1.0 3.0 0.00 0.00 0.00 62 1017.2
20260902185027 78 312 1.0 2.0 0.00 0.00 0.00 62 1017.0
20260902184518 78 280 1.0 2.0 0.00 0.00 0.00 62 1016.9
20260902183518 78 268 1.0 3.0 0.00 0.00 0.00 61 1016.8
20260902182029 79 289 3.0 7.0 0.00 0.00 0.00 60 1016.7
20260902180518 79 275 2.0 3.0 0.00 0.00 0.00 58 1016.4
20260902175518 80 286 3.0 6.0 0.00 0.00 0.00 57 1016.4
20260902173519 81 240 3.0 9.0 0.00 0.00 0.00 52 1016.1
20260902172518 81 256 7.0 12.0 0.00 0.00 0.00 48 1016.2
20260902171519 82 222 5.0 10.0 0.00 0.00 0.00 45 1016.1
20260902170019 83 253 5.0 12.0 0.00 0.00 0.00 41 1016.0
20260902164518 84 354 8.0 15.0 0.00 0.00 0.00 39 1015.9
20260902162520 85 231 9.0 15.0 0.00 0.00 0.00 36 1016.0
20260902161519 85 279 7.0 13.0 0.00 0.00 0.00 37 1016.0
20260902155520 86 246 9.0 16.0 0.00 0.00 0.00 36 1016.1
20260902154037 87 252 8.0 17.0 0.00 0.00 0.00 39 1016.1
20260902153036 87 207 10.0 17.0 0.00 0.00 0.00 40 1016.2
20260902152038 88 258 7.0 15.0 0.00 0.00 0.00 39 1016.3
20260902151520 89 241 5.0 12.0 0.00 0.00 0.00 37 1016.3
20260902150518 88 235 10.0 17.0 0.00 0.00 0.00 36 1016.3
20260902150019 88 219 7.0 18.0 0.00 0.00 0.00 35 1016.3
20260902145037 88 229 10.0 16.0 0.00 0.00 0.00 35 1016.3
20260902144519 89 224 7.0 16.0 0.00 0.00 0.00 35 1016.3
20260902142519 88 203 10.0 16.0 0.00 0.00 0.00 37 1016.3
20260902142038 88 254 9.0 14.0 0.00 0.00 0.00 38 1016.3
20260902141039 89 226 9.0 18.0 0.00 0.00 0.00 39 1016.3
20260902135518 89 216 10.0 16.0 0.00 0.00 0.00 38 1016.3
20260902134038 90 238 6.0 16.0 0.00 0.00 0.00 37 1016.6
20260902132038 90 243 6.0 13.0 0.00 0.00 0.00 33 1016.7
20260902130524 91 239 6.0 14.0 0.00 0.00 0.00 34 1016.7
20260902125519 90 222 9.0 14.0 0.00 0.00 0.00 33 1016.8
20260902125037 90 165 6.0 15.0 0.00 0.00 0.00 34 1016.9
20260902124036 92 227 10.0 18.0 0.00 0.00 0.00 33 1016.9
20260902123036 92 267 5.0 9.0 0.00 0.00 0.00 22 1017.0
20260902122518 93 302 3.0 10.0 0.00 0.00 0.00 23 1017.0
20260902121518 91 114 2.0 8.0 0.00 0.00 0.00 25 1017.1
20260902120519 91 258 2.0 10.0 0.00 0.00 0.00 24 1017.2
20260902120020 91 208 4.0 12.0 0.00 0.00 0.00 25 1017.2
20260902115519 92 176 4.0 7.0 0.00 0.00 0.00 25 1017.3
20260902115036 92 284 2.0 6.0 0.00 0.00 0.00 26 1017.4
20260902113518 91 168 2.0 3.0 0.00 0.00 0.00 27 1017.6
20260902113037 91 12 2.0 3.0 0.00 0.00 0.00 27 1017.7
20260902112518 90 24 3.0 5.0 0.00 0.00 0.00 27 1017.7
20260902112037 91 316 2.0 3.0 0.00 0.00 0.00 26 1017.8
20260902111518 90 257 4.0 7.0 0.00 0.00 0.00 26 1017.9
20260902111037 90 316 1.0 3.0 0.00 0.00 0.00 27 1017.9
20260902110518 89 37 1.0 3.0 0.00 0.00 0.00 28 1018.0
20260902110021 89 29 2.0 9.0 0.00 0.00 0.00 27 1018.0
20260902105038 88 10 3.0 5.0 0.00 0.00 0.00 28 1018.1
20260902104037 89 253 1.0 5.0 0.00 0.00 0.00 29 1018.1
20260902103038 88 64 2.0 3.0 0.00 0.00 0.00 30 1018.1
20260902102518 88 91 4.0 9.0 0.00 0.00 0.00 30 1018.2
20260902101037 87 85 3.0 8.0 0.00 0.00 0.00 31 1018.3
20260902100518 87 14 2.0 5.0 0.00 0.00 0.00 30 1018.4
20260902100018 88 72 4.0 8.0 0.00 0.00 0.00 31 1018.4
20260902095519 87 14 2.0 5.0 0.00 0.00 0.00 32 1018.4
20260902094037 87 29 2.0 8.0 0.00 0.00 0.00 33 1018.4
20260902092518 86 116 3.0 5.0 0.00 0.00 0.00 35 1018.4
20260902092037 86 54 1.0 7.0 0.00 0.00 0.00 36 1018.4
20260902090519 85 133 1.0 3.0 0.00 0.00 0.00 38 1018.4
20260902090018 85 84 2.0 6.0 0.00 0.00 0.00 37 1018.4
20260902085037 85 119 3.0 8.0 0.00 0.00 0.00 36 1018.3
20260902084037 84 191 3.0 7.0 0.00 0.00 0.00 39 1018.3
20260902083518 84 99 2.0 6.0 0.00 0.00 0.00 39 1018.2
20260902083037 84 95 4.0 7.0 0.00 0.00 0.00 40 1018.2
20260902081518 84 79 2.0 8.0 0.00 0.00 0.00 39 1018.2
20260902080018 82 80 3.0 7.0 0.00 0.00 0.00 43 1018.0
20260902074037 80 153 2.0 3.0 0.00 0.00 0.00 50 1017.9
20260902073518 80 62 2.0 5.0 0.00 0.00 0.00 50 1017.8
20260902072035 79 112 3.0 6.0 0.00 0.00 0.00 53 1017.7
20260902071035 78 166 2.0 7.0 0.00 0.00 0.00 54 1017.6
20260902070018 78 162 2.0 3.0 0.00 0.00 0.00 53 1017.6
20260902065037 77 176 2.0 5.0 0.00 0.00 0.00 55 1017.4
20260902063517 77 90 4.0 8.0 0.00 0.00 0.00 54 1017.5
20260902063036 77 354 3.0 6.0 0.00 0.00 0.00 54 1017.5
20260902062518 77 112 1.0 3.0 0.00 0.00 0.00 54 1017.5
20260902060018 76 93 2.0 3.0 0.00 0.00 0.00 55 1017.2
20260902053519 75 52 1.0 3.0 0.00 0.00 0.00 55 1017.0
20260902044518 74 61 1.0 3.0 0.00 0.00 0.00 57 1017.0
20260902043517 74 57 2.0 3.0 0.00 0.00 0.00 57 1017.0
20260902043036 74 69 1.0 3.0 0.00 0.00 0.00 57 1016.9
20260902042519 74 125 1.0 3.0 0.00 0.00 0.00 57 1016.9
20260902041518 74 112 2.0 3.0 0.00 0.00 0.00 57 1016.9
20260902041035 74 109 2.0 3.0 0.00 0.00 0.00 57 1017.0
20260902040017 74 90 1.0 3.0 0.00 0.00 0.00 57 1017.0
20260902035027 74 91 1.0 3.0 0.00 0.00 0.00 56 1016.9
20260902034517 74 73 1.0 3.0 0.00 0.00 0.00 56 1016.8
20260902034027 73 75 2.0 3.0 0.00 0.00 0.00 57 1016.9
20260902032026 73 105 2.0 3.0 0.00 0.00 0.00 57 1016.9
20260902031518 73 148 3.0 6.0 0.00 0.00 0.00 57 1016.9
20260902030517 73 228 1.0 3.0 0.00 0.00 0.00 56 1016.9
20260902030017 74 315 1.0 2.0 0.00 0.00 0.00 56 1016.9
20260902025520 74 339 0.0 1.0 0.00 0.00 0.00 56 1017.0
20260902024517 74 4 2.0 3.0 0.00 0.00 0.00 55 1016.9
20260902024027 74 345 3.0 6.0 0.00 0.00 0.00 55 1017.0
20260902021517 75 21 3.0 7.0 0.00 0.00 0.00 52 1017.0
20260902014517 74 284 1.0 2.0 0.00 0.00 0.00 52 1016.9
20260902014027 74 109 0.0 1.0 0.00 0.00 0.00 54 1016.9
20260902013026 74 149 2.0 5.0 0.00 0.00 0.00 52 1016.8
20260902011517 74 281 1.0 3.0 0.00 0.00 0.00 50 1017.0
20260902010017 74 184 1.0 3.0 0.00 0.00 0.00 52 1017.0
20260902005517 74 226 2.0 3.0 0.00 0.00 0.00 52 1017.0
20260902003027 73 317 2.0 3.0 0.00 0.00 0.00 53 1017.0
20260902001517 73 31 2.0 3.0 0.00 0.00 0.00 58 1017.0
20260902000017 72 327 1.0 2.0 0.00 0.00 0.00 62 1017.2
20260901235517 72 281 2.0 3.0 0.00 0.00 0.00 63 1017.2
20260901235026 73 274 2.0 3.0 0.00 0.00 0.00 63 1017.3
20260901234028 73 318 1.0 3.0 0.00 0.00 0.00 64 1017.3
20260901233519 73 291 2.0 3.0 0.00 0.00 0.00 65 1017.4
20260901233026 73 297 2.0 3.0 0.00 0.00 0.00 65 1017.3
20260901232518 73 276 2.0 3.0 0.00 0.00 0.00 65 1017.4
20260901231517 73 268 2.0 3.0 0.00 0.00 0.00 65 1017.4
20260901230016 73 284 3.0 3.0 0.00 0.00 0.00 65 1017.4
20260901225516 73 288 1.0 3.0 0.00 0.00 0.00 65 1017.5
20260901225027 73 277 2.0 3.0 0.00 0.00 0.00 66 1017.4
20260901222517 74 272 2.0 3.0 0.00 0.00 0.00 65 1017.4
20260901222026 74 265 2.0 3.0 0.00 0.00 0.00 65 1017.4
20260901221517 75 282 1.0 2.0 0.00 0.00 0.00 65 1017.4
20260901220515 75 310 1.0 2.0 0.00 0.00 0.00 64 1017.5
20260901215026 76 26 1.0 2.0 0.00 0.00 0.00 63 1017.3
20260901213027 76 49 0.0 3.0 0.00 0.00 0.00 63 1017.4
20260901212518 76 16 3.0 6.0 0.00 0.00 0.00 63 1017.3
20260901212026 76 56 1.0 3.0 0.00 0.00 0.00 63 1017.3
20260901205027 77 45 3.0 3.0 0.00 0.00 0.00 62 1017.4
20260901204517 77 48 2.0 3.0 0.00 0.00 0.00 62 1017.3
20260901204026 77 61 2.0 3.0 0.00 0.00 0.00 61 1017.3
20260901203026 77 51 2.0 6.0 0.00 0.00 0.00 59 1017.3
20260901202517 77 73 2.0 5.0 0.00 0.00 0.00 58 1017.2
20260901202026 77 48 3.0 7.0 0.00 0.00 0.00 57 1017.2
20260901201516 77 37 3.0 5.0 0.00 0.00 0.00 54 1017.2
20260901200516 78 30 3.0 6.0 0.00 0.00 0.00 52 1017.1